Total_Precipitation_Accumulation
1.01 1.27 1.11 0.77 0.77 0.67 0.55 0.56 0.45 0.29 0.24 0.41 0.41 0.31 0.25 0.25 0.29 0.31 0.33 0.40 0.40 0.45 0.55 0.65 0.81 0.97 1.14 1.29 1.43 1.57 1.71 1.86 2.08 2.25 2.35 2.33 2.25 2.09 2.01 1.95 1.89 1.88 1.93 1.99
1.11 0.99 0.53 0.41 0.51 0.61 0.64 0.71 0.55 0.39 0.29 0.45 0.44 0.33 0.27 0.25 0.29 0.32 0.33 0.41 0.42 0.46 0.57 0.62 0.74 0.94 1.06 1.17 1.31 1.53 1.70 1.79 1.96 2.13 2.17 2.28 2.25 2.15 2.03 1.95 1.90 1.85 1.87 1.98
0.87 0.57 0.37 0.47 0.63 0.77 0.69 0.63 0.55 0.53 0.46 0.50 0.55 0.48 0.28 0.24 0.23 0.27 0.30 0.36 0.39 0.45 0.53 0.58 0.69 0.84 0.99 1.08 1.20 1.39 1.66 1.82 1.90 2.12 2.40 2.61 2.68 2.50 2.32 2.13 1.97 1.85 1.83 1.87
0.66 0.39 0.41 0.56 0.66 0.75 0.74 0.41 0.46 0.57 0.86 0.91 0.72 0.84 0.33 0.23 0.21 0.24 0.29 0.32 0.34 0.40 0.44 0.51 0.64 0.78 0.88 1.01 1.21 1.36 1.48 1.74 1.97 2.12 2.37 2.60 2.71 2.55 2.20 2.05 2.00 1.93 1.85 1.84
0.78 0.42 0.48 0.57 0.49 0.58 0.61 0.43 0.50 0.66 1.01 1.17 0.76 0.90 0.41 0.25 0.26 0.24 0.28 0.31 0.32 0.38 0.43 0.45 0.55 0.66 0.76 0.96 1.17 1.37 1.46 1.64 1.93 2.13 2.25 2.53 2.67 2.56 2.38 2.25 2.10 1.97 1.91 1.88
0.59 0.43 0.54 0.46 0.36 0.49 0.61 0.72 0.83 0.99 1.61 1.92 0.70 0.69 0.49 0.36 0.36 0.28 0.29 0.34 0.35 0.39 0.46 0.45 0.51 0.62 0.70 0.91 1.08 1.32 1.50 1.57 1.82 2.07 2.24 2.39 2.60 2.70 2.58 2.44 2.32 2.15 2.06 1.99
0.78 0.56 0.55 0.49 0.60 0.69 0.98 1.64 2.39 2.58 2.63 1.57 0.38 0.50 0.55 0.37 0.32 0.36 0.40 0.42 0.42 0.43 0.47 0.50 0.52 0.62 0.65 0.85 1.01 1.22 1.46 1.50 1.62 1.82 2.05 2.26 2.48 2.67 2.74 2.56 2.36 2.25 2.21 2.12
0.98 0.77 0.58 0.59 0.73 0.89 0.99 1.44 1.94 1.81 1.19 0.58 0.34 0.49 0.47 0.37 0.32 0.31 0.36 0.40 0.39 0.41 0.46 0.52 0.55 0.60 0.64 0.71 0.85 1.05 1.31 1.41 1.45 1.59 1.76 2.06 2.33 2.54 2.67 2.71 2.49 2.32 2.21 2.09
1.12 0.74 0.42 0.41 0.44 0.61 0.98 1.08 0.98 1.39 0.99 0.64 0.50 0.44 0.36 0.27 0.23 0.24 0.29 0.35 0.38 0.43 0.47 0.54 0.63 0.64 0.68 0.69 0.75 0.92 1.20 1.34 1.34 1.45 1.58 1.79 2.07 2.35 2.50 2.55 2.56 2.45 2.30 2.16
1.31 1.03 0.52 0.47 0.59 0.69 0.79 0.98 1.17 1.80 1.60 0.95 0.57 0.41 0.51 0.41 0.31 0.26 0.29 0.37 0.42 0.44 0.49 0.55 0.65 0.70 0.72 0.71 0.74 0.87 1.05 1.29 1.36 1.39 1.48 1.60 1.78 2.03 2.26 2.45 2.56 2.41 2.31 2.23
1.21 1.35 0.88 0.77 1.01 1.04 0.93 1.19 1.46 1.52 1.24 1.07 0.80 0.63 0.64 0.54 0.46 0.41 0.36 0.39 0.45 0.47 0.53 0.59 0.66 0.74 0.77 0.76 0.79 0.89 1.01 1.20 1.41 1.46 1.45 1.55 1.68 1.90 2.07 2.17 2.31 2.41 2.39 2.28
1.16 1.52 1.15 0.78 0.69 0.70 0.92 1.08 1.28 1.63 1.24 0.78 0.79 0.70 0.53 0.44 0.42 0.41 0.39 0.39 0.46 0.53 0.60 0.63 0.67 0.72 0.75 0.80 0.83 0.85 1.01 1.16 1.31 1.46 1.51 1.56 1.66 1.87 2.00 1.99 2.01 2.15 2.33 2.32
1.70 2.01 1.62 1.20 1.05 0.93 1.10 0.99 1.02 1.21 1.19 0.90 0.78 0.58 0.39 0.33 0.34 0.35 0.38 0.39 0.45 0.51 0.58 0.63 0.62 0.67 0.76 0.80 0.84 0.85 0.93 1.10 1.26 1.42 1.54 1.53 1.64 1.75 1.83 1.86 1.86 1.88 2.03 2.21
1.96 1.96 1.45 1.31 1.18 1.09 1.05 0.83 0.80 1.21 1.47 0.87 0.54 0.43 0.36 0.34 0.36 0.36 0.39 0.41 0.44 0.48 0.53 0.60 0.66 0.68 0.78 0.84 0.83 0.87 0.94 1.06 1.26 1.43 1.58 1.55 1.63 1.74 1.75 1.75 1.77 1.74 1.82 2.01
1.68 1.63 0.79 0.51 0.45 0.56 0.64 0.60 0.64 0.89 0.87 0.78 0.50 0.40 0.44 0.46 0.51 0.50 0.48 0.45 0.42 0.47 0.52 0.58 0.68 0.77 0.79 0.82 0.82 0.88 0.98 1.03 1.21 1.42 1.60 1.62 1.59 1.66 1.71 1.70 1.78 1.79 1.81 1.88
1.37 1.40 0.72 0.45 0.31 0.41 0.50 0.42 0.46 0.53 0.55 0.52 0.41 0.44 0.41 0.43 0.40 0.43 0.46 0.47 0.49 0.52 0.56 0.56 0.62 0.71 0.79 0.83 0.83 0.87 0.98 1.02 1.10 1.28 1.46 1.57 1.56 1.61 1.65 1.64 1.72 1.79 1.81 1.82
1.29 1.30 1.16 0.69 0.33 0.60 0.80 0.55 0.52 0.53 0.54 0.55 0.56 0.52 0.42 0.40 0.42 0.47 0.51 0.54 0.57 0.61 0.60 0.58 0.64 0.70 0.77 0.83 0.83 0.88 0.96 1.00 1.04 1.16 1.34 1.46 1.49 1.52 1.55 1.56 1.64 1.74 1.79 1.74
1.16 1.30 1.61 1.09 0.76 1.20 0.83 0.45 0.46 0.53 0.58 0.58 0.57 0.50 0.47 0.47 0.49 0.48 0.49 0.57 0.63 0.64 0.63 0.63 0.69 0.72 0.72 0.76 0.83 0.87 0.89 0.94 0.98 1.08 1.24 1.41 1.44 1.46 1.46 1.49 1.53 1.61 1.67 1.69
0.73 1.30 1.94 1.59 1.14 0.75 0.47 0.33 0.48 0.60 0.63 0.57 0.50 0.41 0.39 0.39 0.39 0.41 0.42 0.46 0.56 0.61 0.62 0.64 0.69 0.72 0.69 0.70 0.78 0.84 0.88 0.91 0.98 1.11 1.22 1.35 1.44 1.44 1.41 1.44 1.47 1.49 1.49 1.57
0.84 1.37 2.15 1.84 1.39 0.80 0.51 0.26 0.32 0.54 0.73 0.47 0.41 0.40 0.40 0.42 0.52 0.48 0.41 0.39 0.45 0.47 0.53 0.60 0.63 0.64 0.63 0.66 0.71 0.78 0.86 0.89 0.97 1.13 1.24 1.30 1.36 1.39 1.38 1.40 1.44 1.42 1.36 1.39
1.21 1.87 2.08 1.51 1.26 0.61 0.35 0.23 0.29 0.73 0.83 0.43 0.38 0.41 0.42 0.54 0.63 0.51 0.42 0.41 0.43 0.47 0.51 0.54 0.57 0.58 0.62 0.65 0.69 0.74 0.80 0.91 0.97 1.07 1.14 1.21 1.27 1.31 1.28 1.32 1.33 1.34 1.32 1.31
0.86 1.21 1.25 1.19 1.35 0.73 0.31 0.30 0.63 0.77 0.40 0.32 0.31 0.33 0.37 0.40 0.38 0.36 0.39 0.41 0.45 0.49 0.49 0.51 0.54 0.55 0.58 0.62 0.64 0.69 0.79 0.89 0.93 0.95 0.99 1.10 1.21 1.24 1.19 1.26 1.24 1.21 1.27 1.31
0.68 0.95 1.00 0.95 0.85 0.56 0.42 0.50 0.53 0.45 0.38 0.29 0.30 0.29 0.33 0.37 0.37 0.39 0.41 0.43 0.47 0.49 0.50 0.51 0.53 0.51 0.53 0.59 0.61 0.68 0.76 0.82 0.93 0.92 0.96 1.02 1.12 1.19 1.20 1.23 1.22 1.21 1.22 1.25
0.50 0.54 0.71 0.65 0.49 0.41 0.39 0.35 0.31 0.29 0.32 0.30 0.31 0.33 0.36 0.39 0.39 0.42 0.43 0.46 0.49 0.52 0.53 0.55 0.53 0.53 0.57 0.61 0.63 0.68 0.74 0.80 0.90 0.92 0.94 0.99 1.07 1.19 1.19 1.21 1.21 1.22 1.26 1.33
0.44 0.46 0.56 0.53 0.38 0.30 0.26 0.26 0.28 0.25 0.23 0.24 0.25 0.28 0.35 0.38 0.41 0.44 0.47 0.49 0.53 0.55 0.56 0.55 0.53 0.55 0.59 0.61 0.64 0.66 0.70 0.78 0.88 0.90 0.91 0.95 1.02 1.17 1.21 1.24 1.27 1.29 1.26 1.46
0.34 0.45 0.56 0.50 0.36 0.42 0.33 0.26 0.27 0.29 0.27 0.26 0.29 0.29 0.30 0.35 0.41 0.44 0.49 0.52 0.54 0.55 0.53 0.52 0.51 0.55 0.60 0.61 0.64 0.65 0.69 0.76 0.85 0.90 0.92 0.93 1.00 1.13 1.16 1.20 1.30 1.35 1.33 1.35